Regional Weather Roundup
Issued by NWS New Orleans/Baton Rouge, LA

Current Version | Previous Version | Text Only | Print | Product List | Glossary On
Versions: 1 2 3 4 5 6 7 8 9 10 11 12 13 14 15 16 17 18 19 20 21 22 23 24 25 26 27
000
ASUS44 KLIX 280012
RWRLIX
NEW ORLEANS REGIONAL WEATHER ROUNDUP
NATIONAL WEATHER SERVICE NEW ORLEANS LA
700 PM CDT FRI MAY 27 2016

NOTE: "FAIR" INDICATES FEW OR NO CLOUDS BELOW 12,000 FEET WITH NO
      SIGNIFICANT WEATHER AND/OR OBSTRUCTIONS TO VISIBILITY.
      SKY/WX - SKY CONDITION AND SIGNIFICANT WEATHER.
      TMP - AIR TEMPERATURE.     DP    - DEWPOINT TEMPERATURE.
      RH  - RELATIVE HUMIDITY.   PRES  - PRESSURE.
      HI  - HEAT INDEX.          WCI   - WIND CHILL INDEX.

*  THESE STATIONS ARE NOT NWS OR FAA STATIONS AND ARE NOT UNDER
   NWS QUALITY CONTROL.

LAZ038-040-048-061>063-065>067-069-280100-
SOUTHEAST LOUISIANA

CITY           SKY/WX    TMP DP  RH WIND       PRES   REMARKS
N.O. AUDUBON   NOT AVBL
N.O. INTL ARPT CLOUDY    81  68  64 SE13      29.92S
6HR MIN TEMP:  81; 6HR MAX TEMP:  87;

N.O. LAKEFRONT CLOUDY    82  65  56 SE12      29.93S
6HR MIN TEMP:  82; 6HR MAX TEMP:  86;

N.O. DOWNTOWN*   N/A     82  68  62 S9        29.94R
6HR MIN TEMP:  82; 6HR MAX TEMP:  87;

RESERVE*         N/A     82  70  67 SE14      29.92R
6HR MIN TEMP:  82; 6HR MAX TEMP:  87;

SLIDELL        CLOUDY    81  69  67 SE9       29.93S
6HR MIN TEMP:  81; 6HR MAX TEMP:  85;

BATON ROUGE    CLOUDY    81  62  52 SE16G24   29.89R
6HR MIN TEMP:  81; 6HR MAX TEMP:  87;

BOOTHVILLE     CLOUDY    79  70  74 E5        29.94R
6HR MIN TEMP:  78; 6HR MAX TEMP:  83; 6HR PCP: TRACE;

BELLE CHASSE   CLOUDY    80  68  66 SE8       29.93R
6HR MIN TEMP:  80; 6HR MAX TEMP:  85; 6HR PCP: TRACE;

BOGALUSA*        N/A     80  64  57 S6        29.95S
GALLIANO*      CLOUDY    81  69  68 SE7       29.92F
6HR MIN TEMP:  81; 6HR MAX TEMP:  85;

NEW ROADS*       N/A     80  68  67 S8        29.89R
6HR MIN TEMP:  80; 6HR MAX TEMP:  85;

GONZALES*        N/A     80  67  64 S7        29.89F
6HR MIN TEMP:  80; 6HR MAX TEMP:  85;

HAMMOND*       CLOUDY    79  66  65 SE12G18   29.91S
HOUMA*         NOT AVBL
PORT FOURCHON* PTCLDY    81  72  74 SE14      29.92S

$$

MSZ070-080>082-280100-
SOUTHERN MISSISSIPPI

CITY           SKY/WX    TMP DP  RH WIND       PRES   REMARKS
MCCOMB         CLOUDY    78  66  66 SE8       29.92R
6HR MIN TEMP:  78; 6HR MAX TEMP:  84;

GULFPORT       CLOUDY    80  69  69 SE16      29.95R
6HR MIN TEMP:  80; 6HR MAX TEMP:  86;

BILOXI         CLOUDY    80  71  75 SE10G17   29.95R
6HR MIN TEMP:  80; 6HR MAX TEMP:  85;

PASCAGOULA     CLOUDY    79  70  74 SE7       29.96R
6HR MIN TEMP:  79; 6HR MAX TEMP:  86;

STENNIS ARPT*  PTCLDY    79  64  61 SE7       29.94S

$$

COASTAL OBSERVATIONS
LAKE AND NEARSHORE STATIONS

STATION/POSITION TIME  TEMP    WIND        PRES    WAVE
                       AIR SEA DIR/SP/G            HT/PER
                 (UTC) (F)     (DEG/KT/KT) (MB)    (FT/S)
PASCAGOULA       2300          130/ 11/ 16 1013.6
WAVELAND YACHT   2300          150/ 13/ 18 1013.6
GRAND ISLE       2300          150/  8/ 14 1013.2
SOUTHWEST PASS   2300          140/ 12/ 16   N/A
NEW CANAL        2300          140/  5/ 11 1012.6
SHELL BEACH      2300          140/ 14/ 16 1013.7

OFFSHORE STATIONS

STATION/POSITION TIME  TEMP    WIND        PRES    WAVE
                       AIR SEA DIR/SP/G            HT/PER
                 (UTC) (F)     (DEG/KT/KT) (MB)    (FT/S)
64 S DAUPHIN ISL 2300   79 80  130/ 16/ 17 1013.3

$$





USA.gov is the U.S. government's official web portal to all federal, state and local government web resources and services.